Location: Assche-ter-Heiden
(50.9174°N, 4.1574°E)
Time: 10:16:26
(UTC+00:00)

Meteor 1-11 - Pass Details

Date: 20 January 2020
Orbit: 840 x 887 km, 81.2° (Epoch: 18 February)

Event Time Altitude Azimuth Distance (km) Brightness Sun altitude
Rises 06:28:18 0° 343° (NNW) 3,409 7.0 -10.4°
Reaches altitude 10° 06:30:47 10° 338° (NNW) 2,471 6.2 -10.0°
Maximum altitude 06:36:07 48° 266° (W) 1,102 4.5 -9.2°
Drops below altitude 10° 06:41:27 10° 194° (SSW) 2,472 6.7 -8.5°
Sets 06:43:56 0° 188° (S) 3,409 7.5 -8.1°
